Regional Weather Roundup
Issued by NWS

Home | Current Version | Previous Version | Text Only | Print | Product List | Glossary Off
Versions: 1 2 3 4 5 6 7 8 9 10 11 12 13 14 15 16 17 18 19 20 21 22 23 24 25 26 27 28 29 30 31 32 33 34 35 36 37 38 39 40 41 42 43 44 45 46 47 48 49 50

000
ASUS45 KCYS 292110
RWRWY

WYOMING REGIONAL WEATHER ROUNDUP
NATIONAL WEATHER SERVICE CHEYENNE WY
300 PM MDT SUN MAR 29 2015

NOTE:  "FAIR" INDICATES FEW OR NO CLOUDS BELOW 12,000 FEET
WITH NO SIGNIFICANT WEATHER AND/OR OBSTRUCTIONS TO VISIBILITY.

WYZ001-292200-
YELLOWSTONE NATIONAL PARK

CITY           SKY/WX    TMP DP  RH WIND       PRES   REMARKS
LK YELLOWSTONE   N/A     45   7  21 W9G23     30.28S
W YELLOWSTONE  NOT AVBL

$$
WYZ002>013-054>058-071-098>099-292200-
NORTHERN WYOMING

CITY           SKY/WX    TMP DP  RH WIND       PRES   REMARKS
JACKSON        SUNNY     48  23  37 VRB6      30.27F
CODY           FAIR      63  14  15 NW5       30.13F
GREYBULL       FAIR      60  16  18 CALM      30.13F
WORLAND        FAIR      62  15  16 E3        30.11F
SHERIDAN       FAIR      59  27  29 N8        30.12S
BUFFALO        FAIR      58  24  27 N13G22    30.12S
GILLETTE       FAIR      60  24  25 VRB7      30.10F
HULETT         FAIR      57  27  30 W12G22    30.13S
NEWCASTLE      FAIR      55  21  26 CALM      30.13F

$$
WYZ014>020-022>026-101>103-292200-
CENTRAL WYOMING

CITY           SKY/WX    TMP DP  RH WIND       PRES   REMARKS
BIG PINEY      FAIR      55   9  16 VRB3      30.26F
PINEDALE       FAIR      52   5  15 NW8       30.27F
DUBOIS         FAIR      54   3  13 NW17      30.20F
LANDER         FAIR      61  18  18 VRB5      30.13F
RIVERTON       FAIR      61  10  13 VRB5      30.14F
CASPER         FAIR      61   9  12 W14G23    30.13F
DOUGLAS        FAIR      62  23  22 S8        30.13F

$$
WYZ021-027>030-104>119-292200-
SOUTHERN WYOMING

CITY           SKY/WX    TMP DP  RH WIND       PRES   REMARKS
EVANSTON       FAIR      59   9  13 W18       30.28F
KEMMERER       FAIR      55   9  15 W17G23    30.30S
FORT BRIDGER   FAIR      63   9  12 W15G23    30.30F
ROCK SPRINGS   FAIR      57   8  14 W9G20     30.25F
DIXON          FAIR      61  15  16 W10G21    30.27F
RAWLINS        FAIR      60   7  12 W20G33    30.21F
SARATOGA       FAIR      59   9  13 W17G26    30.24S
LARAMIE        FAIR      55  12  18 VRB3      30.20F
CHEYENNE       FAIR      61  18  18 S13G21    30.18F
TORRINGTON     FAIR      61  21  21 SW8G18    30.15F
PINE BLUFFS    FAIR      59  21  23 NE5       30.19F

$$


USA.gov is the U.S. government's official web portal to all federal, state and local government web resources and services.